Regional Weather Roundup
Issued by NWS

Home | Current Version | Previous Version | Text Only | Print | Product List | Glossary On
Versions: 1 2 3 4 5 6 7 8 9 10 11 12 13 14 15 16 17 18 19 20 21 22 23 24 25 26 27 28 29 30 31 32 33 34 35 36 37 38 39 40 41 42 43 44 45 46 47 48 49 50
000
ASUS46 KLOX 250211
RWRCA

SOUTHERN CALIFORNIA WEATHER ROUNDUP
NATIONAL WEATHER SERVICE OXNARD CALIFORNIA
700 PM PDT SUN MAY 24 2015

NOTE: "FAIR" INDICATES FEW OR NO CLOUDS BELOW 12,000 FEET WITH NO
SIGNIFICANT WEATHER AND/OR OBSTRUCTIONS TO VISIBILITY.

  -  STATIONS PRECEEDED BY AN ASTERISK (*) ARE NOT NWS OR FAA
     STATIONS AND ARE NOT SUBJECT TO NWS AND FAA QUALITY CONTROL.

CAZ041-042-087-250300-
LA AND ORANGE COUNTY COASTAL AREAS


CITY           SKY/WX    TMP DP  RH WIND       PRES   REMARKS
L.A. DOWNTOWN  CLEAR     68  52  56 CALM      29.93F
L.A. AIRPORT   CLEAR     62  53  72 W10       29.95S
LONG BEACH     CLEAR     65  52  62 S10       29.94S

CITY           SKY/WX    TMP DP  RH WIND       PRES   REMARKS
FULLERTON      CLEAR     67  52  58 S8        29.93S
HAWTHORNE      CLEAR     66  52  60 W10       29.95S
*LOS ALAMITOS  FAIR      64  55  74 SW12      29.94F
*REDONDO BEACH   N/A     62  55  76 W3        29.95S
SANTA ANA      CLEAR     65  52  62 SW6       29.94F
STA MONICA APT CLEAR     64  51  62 SW7       29.95S
*STA MON PIER    N/A     61  56  85 W8        29.95R
*UCLA            N/A     63  50  63 SW5       29.92S

$$

CAZ547-548-048-250300-
LA COUNTY VALLEYS AND INLAND EMPIRE


CITY           SKY/WX    TMP DP  RH WIND       PRES   REMARKS
BURBANK        CLEAR     68  50  52 S7        29.93S
VAN NUYS       CLEAR     68  50  52 S9        29.93S

CITY           SKY/WX    TMP DP  RH WIND       PRES   REMARKS
CORONA AIRPORT CLEAR     68  52  56 W6        29.94F
*CHATSWORTH      N/A     69  51  52 CALM      29.92S
CHINO          PTCLDY    68  52  56 W8        29.95S
MARCH AFB      CLEAR     66  51  58 NW7       29.94F
*NORTHRIDGE      N/A     68  46  45 SE3         N/A
ONTARIO        PTCLDY    66  51  58 W6        29.94S
*PASADENA        N/A     68  55  64 E5          N/A
POMONA         PTCLDY    66  50  55 SW5       29.97
RIVERSIDE      CLEAR     68  52  56 W6        29.94S
SAN BERNARDINO PTCLDY    66  46  48 W6        29.94S HAZE
*WHITEMAN AP   CLEAR     66  50  55 MISG      29.96F
*WOODLAND HILL   N/A     68  48  49 S6          N/A

$$

CAZ054-055-250300-
LA AND SAN BERNARDINO COUNTY MOUNTAINS


CITY           SKY/WX    TMP DP  RH WIND       PRES   REMARKS
*BIG BEAR AIRP CLEAR     57  34  41 W8        30.07R
SANDBERG       MOSUNNY   63  46  54 NW8       30.02S

$$

CAZ028-029-059-060-099-250300-
ANTELOPE VALLEY AND SURROUNDING AREAS


CITY           SKY/WX    TMP DP  RH WIND       PRES   REMARKS
LANCASTER      CLEAR     70  46  42 SW20      29.91R
PALMDALE       CLEAR     70  46  42 W14       29.92R

CITY           SKY/WX    TMP DP  RH WIND       PRES   REMARKS
29 PALMS       PTCLDY    81  39  22 CALM      29.88S
BARSTOW/DAGGET CLEAR     85  34  16 W14       29.79S
BISHOP         CLOUDY    76  41  28 CALM      29.87R
CHINA LAKE     CLEAR     81  42  25 W15       29.79S
EDWARDS AFB    CLEAR     74  45  35 SW23G32   29.85S
MOJAVE         FAIR      72  41  33 W20G29    29.89F
NEEDLES        PTCLDY    87  39  18 SW13      29.75S
VICTORVILLE    CLEAR     73  43  33 W16G24    29.90R

$$

CAZ039-040-250300-
VENTURA AND SANTA BARBARA COUNTY COAST


CITY           SKY/WX    TMP DP  RH WIND       PRES   REMARKS
CAMARILLO      SUNNY     65  50  58 SW10      29.95R
OXNARD AIRPORT SUNNY     63  53  70 W12       29.95S
*POINT MUGU    MOSUNNY   64  54  69 W9        29.96R
SBA APT/GOLETA SUNNY     64  54  69 S5        29.93S
*SANTA BARBARA   N/A     68  51  55 CALM      30.02S
*VENTURA         N/A     65  48  53 SW6       29.56R

$$

CAZ044-045-250300-
VENTURA COUNTY VALLEYS


CITY           SKY/WX    TMP DP  RH WIND       PRES   REMARKS
*SIMI VALLEY     N/A     66  52  61 W3        29.90R
*OJAI            N/A     67  52  57 CALM      29.89R
*FILLMORE        N/A     69  53  55 W3        29.83S

$$

CAZ053-250300-
VENTURA COUNTY MOUNTAINS


CITY           SKY/WX    TMP DP  RH WIND       PRES   REMARKS

$$

CAZ034-035-036-250300-
CENTRAL COAST AND SANTA YNEZ VALLEY


CITY           SKY/WX    TMP DP  RH WIND       PRES   REMARKS
SAN LUIS OBISP MOSUNNY   58  50  75 NW21      29.96R
SANTA MARIA    MOSUNNY   60  51  72 W16       29.98R

CITY           SKY/WX    TMP DP  RH WIND       PRES   REMARKS
*CAL POLY SLO    N/A     63  52  67 W7          N/A
*PISMO BEACH     N/A     60  53  79 SW3       29.96S
*SANTA YNEZ    FAIR      61  48  63 W18G24    29.95R

$$

CAZ037-038-051-250300-
SAN LUIS OBISPO COUNTY INTERIOR AND CUYAMA VALLEY


CITY           SKY/WX    TMP DP  RH WIND       PRES   REMARKS
*CUYAMA          N/A     73  46  37 W10       29.87S
PASO ROBLES    SUNNY     70  48  45 S15       29.90S

$$

CAZ032-033-061-250300-
SOUTHERN DESERTS


CITY           SKY/WX    TMP DP  RH WIND       PRES   REMARKS
BLYTHE         CLEAR     85  37  18 W3        29.77S
IMPERIAL       CLEAR     86  44  23 SW3       29.76R
PALM SPRINGS   CLEAR     80  48  32 NW13G18   29.80R
THERMAL        CLEAR     82  48  30 NW16      29.76R

$$

ELSEWHERE ACROSS THE WESTERN UNITED STATES AND MEXICO


CITY           SKY/WX    TMP DP  RH WIND       PRES   REMARKS
DENVER, CO     MOCLDY    54  41  61 N10       29.84R
GRAND CANYON,  MOCLDY    49  46  90 CALM      30.03S
HONOLULU, HI   PTSUNNY   75  59  57 N13       30.00F
KAHULUI, MAUI  MOSUNNY   79  61  53 NE15      30.01F
LAKE TAHOE, CA LGT RAIN  53  48  83 S5        30.08S
LAS VEGAS, NV  MOCLDY    80  43  26 S13       29.75S
MAMMOTH LAKES, FAIR      57  41  54 NW14      30.06R
MEXICO CITY, M CLOUDY    63  48  59 NW7       30.35R
PHOENIX, AZ    PTCLDY    83  34  17 W12       29.79S
PORTLAND, OR   PTSUNNY   66  52  60 CALM      30.01F
RENO, NV       PTSUNNY   71  44  37 NW16      29.93R
SALT LAKE CITY MOCLDY    63  43  48 NW9       29.88R
SAN DIEGO, CA  PTCLDY    66  53  63 NW7       29.96S
SAN FRANCISCO, CLOUDY    56  49  77 W14       29.98F
SAN JOSE, CA   MOSUNNY   60  51  72 NW16      29.97R
SEATTLE, WA    PTSUNNY   60  50  69 W8        30.03F
TIJUANA, MEX   CLEAR     64  46  52 NW10      29.96F

$$

STATION/POSITION TIME  TEMP    WIND        PRES    VSBY  WAVE
                       AIR SEA DIR/SP/G                  HT/PER
                 (UTC) (F)     (DEG/KT/KT) (MB)    (MI)  (FT/S)
POINT ARGUELLO B NOT AVBL
WEST SANTA BARBA 0150   56 55  320/ 21/ 25 1014.1F         5/ 8
POINT CONCEPTION NOT AVBL
EAST SANTA BARBA 0100   57 58  260/ 14/ 16 1014.6R
SANTA MONICA BAY 0150   60 63  290/  4/  4 1014.6R         3/17



USA.gov is the U.S. government's official web portal to all federal, state and local government web resources and services.